Regional Weather Roundup
Issued by NWS

Home | Current Version | Previous Version | Text Only | Print | Product List | Glossary Off
Versions: 1 2 3 4 5 6 7 8 9 10 11 12 13 14 15 16 17 18 19 20 21 22 23 24 25 26 27 28 29 30 31 32 33 34 35 36 37 38 39 40 41 42 43 44 45 46 47 48 49 50

000
ASUS45 KCYS 202010
RWRWY

WYOMING REGIONAL WEATHER ROUNDUP
NATIONAL WEATHER SERVICE CHEYENNE WY
200 PM MDT SAT SEP 20 2014

NOTE:  "FAIR" INDICATES FEW OR NO CLOUDS BELOW 12,000 FEET
WITH NO SIGNIFICANT WEATHER AND/OR OBSTRUCTIONS TO VISIBILITY.

WYZ001-202100-
YELLOWSTONE NATIONAL PARK

CITY           SKY/WX    TMP DP  RH WIND       PRES   REMARKS
LK YELLOWSTONE   N/A     60  35  39 SE5       30.43F
W YELLOWSTONE  NOT AVBL

$$
WYZ002>013-054>058-071-098>099-202100-
NORTHERN WYOMING

CITY           SKY/WX    TMP DP  RH WIND       PRES   REMARKS
JACKSON        SUNNY     70  41  35 SW7       30.32F
CODY             N/A    N/A N/A N/A MISG        N/A
GREYBULL       SUNNY     76  37  24 NW10      30.23F
WORLAND        SUNNY     76  41  28 NE7       30.24F
SHERIDAN       SUNNY     73  43  33 N15G23    30.26F
BUFFALO        SUNNY     68  40  35 N18G29    30.30S
GILLETTE       SUNNY     72  38  29 N17G31    30.24F
HULETT         FAIR      70  37  30 MISG      30.25
NEWCASTLE      FAIR      73  34  23 NW22G29   30.23

$$
WYZ014>020-022>026-101>103-202100-
CENTRAL WYOMING

CITY           SKY/WX    TMP DP  RH WIND       PRES   REMARKS
BIG PINEY      SUNNY     74  35  24 CALM      30.35F
PINEDALE       CLEAR     72  30  21 SW5       30.35F
DUBOIS         FAIR      72  32  23 SE16G22   30.34S
LANDER         SUNNY     76  41  28 NE10      30.26F
RIVERTON       SUNNY     74  42  31 NE8       30.28F
CASPER         SUNNY     76  40  27 N7G16     30.27F
DOUGLAS        SUNNY     77  43  29 N12G22    30.26S

$$
WYZ021-027>030-104>119-202100-
SOUTHERN WYOMING

CITY           SKY/WX    TMP DP  RH WIND       PRES   REMARKS
EVANSTON       SUNNY     75  30  19 N6        30.34F
KEMMERER       CLEAR    N/A N/A N/A SE8       30.37F
FORT BRIDGER   FAIR      74  34  23 NE3       30.38F
ROCK SPRINGS   SUNNY     71  33  24 VRB5      30.33F
DIXON          FAIR      76  34  21 W6        30.33F
RAWLINS        SUNNY     74  33  22 W6        30.33F
SARATOGA       FAIR      72  36  26 N6        30.35F
LARAMIE        SUNNY     72  37  28 CALM      30.34F
CHEYENNE       MOSUNNY   79  42  26 VRB6      30.28S
TORRINGTON     SUNNY     81  48  31 MISG      30.18F
PINE BLUFFS    FAIR      79  45  29 E7        30.24S

$$



USA.gov is the U.S. government's official web portal to all federal, state and local government web resources and services.